Weather History for Somerville, NJ

Change the Weather History Date:

Monday, January 30, 2012

  Actual Average Record
Temperature  
Mean Temperature 32 °F -  
Max Temperature 39 °F 36 °F 62 °F (1947)
Min Temperature 26 °F 18 °F -6 °F (2014)
Degree Days  
Heating Degree Days 32    
Moisture  
Dew Point 16 °F    
Average Humidity 48    
Maximum Humidity 72    
Minimum Humidity 30    
Precipitation  
Precipitation 0.00 in - - ()
Sea Level Pressure  
Sea Level Pressure 30.22 in    
Wind  
Wind Speed 5 mph (West)    
Max Wind Speed 13 mph    
Max Gust Speed 24 mph    
Visibility 10 miles    
Events      
Averages and records for this station are not official NWS values.
T = Trace of Precipitation, MM = Missing Value Source: NWS Daily Summary

Daily Weather History Graph

Daily Weather History Graph

Search for Another Location

Airport:

Trip Planner

Search our weather history database for the weather conditions in past years. The results will help you decide how hot, cold, wet, or windy it might be!

Date:

Astronomy

Jan. 30, 2012 Rise Set
Actual Time 7:10 AM EST 5:13 PM EST
Civil Twilight 6:41 AM EST 5:42 PM EST
Nautical Twilight 6:08 AM EST 6:15 PM EST
Astronomical Twilight 5:36 AM EST 6:47 PM EST
Moon 10:29 AM EST (1/30) No Moon Set
Length of Visible Light 11h 00m
Length of Day
10h 02m
Waxing Crescent, 46% of the Moon is Illuminated
Jan 30
Waxing Crescent
Jan 30
First Quarter
Feb 7
Full
Feb 14
Last Quarter
Feb 21
New

Hourly Weather History & Observations

Time (EST) Temp. Windchill Dew Point Humidity Pressure Visibility Wind Dir Wind Speed Gust Speed Precip Events Conditions
12:53 AM 35.1 °F - 27.0 °F 72% 30.04 in 10.0 mi Calm Calm - 0.00 in   Overcast
1:53 AM 37.0 °F 32.4 °F 24.1 °F 59% 30.05 in 10.0 mi Variable 5.8 mph 17.3 mph N/A   Partly Cloudy
2:53 AM 36.0 °F 31.1 °F 19.9 °F 52% 30.07 in 10.0 mi Variable 5.8 mph - N/A   Clear
3:53 AM 35.1 °F 29.3 °F 19.0 °F 52% 30.09 in 10.0 mi West 6.9 mph - N/A   Partly Cloudy
4:53 AM 34.0 °F 29.8 °F 19.0 °F 54% 30.10 in 10.0 mi Variable 4.6 mph - N/A   Clear
5:53 AM 35.1 °F 28.6 °F 19.0 °F 52% 30.14 in 10.0 mi NW 8.1 mph - N/A   Overcast
6:53 AM 33.1 °F 24.9 °F 14.0 °F 46% 30.19 in 10.0 mi NW 10.4 mph 18.4 mph N/A   Clear
7:53 AM 34.0 °F 29.8 °F 14.0 °F 44% 30.24 in 10.0 mi West 4.6 mph - N/A   Overcast
8:53 AM 35.1 °F 26.4 °F 10.0 °F 35% 30.25 in 10.0 mi NNW 12.7 mph 20.7 mph N/A   Clear
9:53 AM 36.0 °F 27.5 °F 10.0 °F 34% 30.28 in 10.0 mi WNW 12.7 mph 24.2 mph N/A   Clear
10:53 AM 37.0 °F 31.0 °F 12.9 °F 37% 30.29 in 10.0 mi West 8.1 mph 16.1 mph N/A   Mostly Cloudy
11:53 AM 37.9 °F 30.9 °F 10.9 °F 33% 30.29 in 10.0 mi West 10.4 mph 20.7 mph N/A   Partly Cloudy
12:53 PM 37.9 °F 30.9 °F 12.9 °F 36% 30.27 in 10.0 mi West 10.4 mph 17.3 mph N/A   Mostly Cloudy
1:53 PM 37.9 °F 30.5 °F 12.0 °F 35% 30.26 in 10.0 mi West 11.5 mph 18.4 mph N/A   Partly Cloudy
2:53 PM 39.0 °F 33.4 °F 12.0 °F 33% 30.26 in 10.0 mi West 8.1 mph - N/A   Clear
3:53 PM 39.0 °F 36.8 °F 10.0 °F 30% 30.25 in 10.0 mi Variable 3.5 mph - N/A   Clear
4:53 PM 37.0 °F 33.3 °F 10.9 °F 34% 30.26 in 10.0 mi Variable 4.6 mph - N/A   Clear
5:53 PM 35.1 °F - 10.9 °F 37% 30.29 in 10.0 mi Calm Calm - N/A   Scattered Clouds
6:53 PM 28.9 °F - 17.1 °F 61% 30.30 in 10.0 mi Calm Calm - N/A   Clear
7:53 PM 26.6 °F - 17.6 °F 69% 30.29 in 10.0 mi Calm Calm - N/A   Clear
8:53 PM 28.0 °F - 19.0 °F 69% 30.30 in 10.0 mi Calm Calm - N/A   Mostly Cloudy
9:53 PM 28.9 °F - 18.0 °F 64% 30.29 in 10.0 mi Calm Calm - N/A   Scattered Clouds
10:53 PM 30.0 °F 26.5 °F 19.9 °F 66% 30.27 in 10.0 mi South 3.5 mph - N/A   Overcast
11:53 PM 30.9 °F - 18.0 °F 59% 30.25 in 10.0 mi Calm Calm - N/A   Mostly Cloudy